Location: Erp
(42.9417°N, 1.2009°E)
Time: 07:07:14
(UTC+00:00)

USA 215 - Pass Details

Date: 12 January 2026
Orbit: 1098 x 1109 km, 123.0° (Epoch: 10 January)

Event Time Altitude Azimuth Distance (km) Brightness Sun altitude
Exits shadow 18:10:45 19° 53° (NE) 2,340 4.4 -15.7°
Maximum altitude 18:15:38 78° 137° (SE) 1,127 3.2 -16.6°
Drops below altitude 10° 18:22:10 10° 224° (SW) 2,948 6.4 -17.8°
Sets 18:24:38 0° 226° (SW) 3,902 7.2 -18.2°
